Flag for Germany Weather past 2 weeks in Freiberg, Saxony, Germany

Now
77 °F

Scattered clouds.


Feels Like: 79 °F
Forecast: 58 / 80 °F
Wind: 6 mph from Southeast

Location: Dresden-Klotzsche

Current Time: Jul 26, 2014 at 11:51:05 AM

Latest Report: Jul 26, 2014 at 11:20 AM


Visibility: N/A

Pressure: 29.92 "Hg

Humidity: 47%

Dew point: 55 °F

Location of FreibergLocation

Historic Weather in Freiberg — Graph

°F

Freiberg temperature yesterday

Maximum temperature yesterday: 70 °F (at 4:50 PM)
Minimum temperature yesterday: 61 °F (at 12:20 AM)
Average temperature yesterday: 65 °F

Past Weeks' High & Low Weather Summary

 TemperatureHumidityPressure
High90 °F (Jul 20, 2:20 PM)100% (Jul 12, 1:50 AM)30.18 "Hg (Jul 12, 1:50 AM)
Low52 °F (Jul 12, 4:50 AM)24% (Jul 20, 3:50 PM)29.74 "Hg (Jul 21, 3:50 AM)
Average69 °F67%29.96 "Hg
* Reported Jul 11 10:20 AM — Jul 26 10:50 AM, Freiberg, Weather by CustomWeather, © 2014

Note: Actual official high and low records may vary slightly from our data, if they occured in-between our weather recording intervals... More about our weather records

Advertising

Freiberg weather history for previous 24 hours

 ConditionsComfort  
Time TempWeatherWind HumidityBarometerVisibility
10:50 AM
Jul 26
77 °FScattered clouds.7 mph57%29.95 "HgN/A
10:20 AM75 °FPassing clouds.5 mph61%29.95 "HgN/A
9:50 AM72 °FSunny.2 mph69%29.95 "Hg10 mi
9:20 AM68 °FSunny.3 mph78%29.95 "Hg10 mi
8:50 AM66 °FSunny.5 mph83%29.95 "Hg10 mi
8:20 AM66 °FSunny.3 mph83%29.95 "Hg10 mi
7:50 AM64 °FFog.1 mph83%29.95 "HgN/A
7:20 AM63 °FFog.1 mph94%29.95 "HgN/A
6:50 AM61 °FSnow. Fog.1 mph94%29.95 "HgN/A
6:20 AM59 °FFog.1 mph100%29.95 "Hg1 mi
5:50 AM61 °FFog.2 mph94%29.95 "Hg1 mi
5:20 AM59 °FFog.1 mph100%29.92 "Hg1 mi
4:50 AM61 °FFog.3 mph94%29.92 "Hg1 mi
4:20 AM61 °FFog.3 mph94%29.92 "Hg4 mi
3:50 AM61 °FClear.5 mph94%29.92 "Hg10 mi
3:20 AM63 °FClear.3 mph88%29.92 "Hg10 mi
2:50 AM61 °FClear.5 mph94%29.92 "Hg10 mi
2:20 AM61 °FClear.6 mph94%29.92 "Hg10 mi
1:50 AM61 °FClear.3 mph88%29.95 "Hg10 mi
1:20 AM63 °FClear.5 mph88%29.92 "Hg10 mi
12:50 AM63 °FClear.6 mph88%29.95 "Hg10 mi
12:20 AM63 °FClear.5 mph94%29.95 "Hg10 mi
11:50 PM
Jul 25
63 °FClear.5 mph88%29.95 "Hg10 mi
11:20 PM64 °FClear.6 mph88%29.95 "Hg10 mi
10:50 PM63 °FClear.5 mph88%29.95 "Hg10 mi
10:20 PM64 °FClear.6 mph83%29.95 "Hg10 mi
9:50 PM64 °FSunny.5 mph88%29.95 "Hg10 mi
9:20 PM66 °FSunny.5 mph83%29.95 "Hg10 mi
8:50 PM66 °FSunny.6 mph83%29.92 "Hg10 mi
8:20 PM68 °FSunny.6 mph78%29.92 "Hg10 mi
7:50 PM68 °FSunny.5 mph78%29.92 "Hg10 mi
7:20 PM68 °FSunny.6 mph78%29.92 "Hg10 mi
6:50 PM70 °FSunny.5 mph73%29.92 "Hg10 mi
6:20 PM70 °FPartly sunny.3 mph73%29.92 "HgN/A
5:50 PM70 °FPartly sunny.3 mph73%29.92 "HgN/A
5:20 PM70 °FPartly sunny.3 mph73%29.92 "HgN/A
4:50 PM70 °FBroken clouds.3 mph73%29.92 "HgN/A
4:20 PM68 °FBroken clouds.3 mph78%29.92 "HgN/A
3:50 PM68 °FPartly sunny.2 mph73%29.92 "HgN/A
3:20 PM68 °FPartly sunny.2 mph78%29.95 "HgN/A
2:20 PM66 °FSprinkles. Broken clouds.7 mph78%29.95 "HgN/A
1:50 PM68 °FBroken clouds.8 mph78%29.95 "HgN/A
1:20 PM68 °FBroken clouds.9 mph78%29.95 "HgN/A
12:50 PM68 °FBroken clouds.10 mph78%29.95 "HgN/A
12:20 PM68 °FBroken clouds.10 mph83%29.95 "HgN/A
11:50 AM66 °FBroken clouds.9 mph83%29.95 "HgN/A
11:20 AM68 °FBroken clouds.6 mph83%29.95 "HgN/A
Weather by CustomWeather, © 2014

See weather overviewHow to use our weather pages